Вернуться в каталог

COSMOS 1275 DEB

АктивенPO
NORAD 42172·DEBRIS·🇷🇺 Russia

Запущен Jun 4, 1981 с Plesetsk Cosmodrome

Loading…

Ближайшие Пролёты (ближайшие 24 часа)

TLE

УстаревающийSource: Space-Track

Эпоха: Sep 9, 2026, 16:59 UTC

1 42172U 81053SL  26252.70830717  .00001161  00000-0  62629-3 0  9990
2 42172  82.9421 239.6983 0069330 121.5160 239.2814 14.10682823655269

Отслеживайте COSMOS 1275 DEB в реальном времени с AllMySat

Download on the App Store